• In Hungary
  • List of Countries
  • For 7 days
  • Water Temperature
  • Satellite Maps
  • Weather Map
  • News
  • Weather Widgets
  • user-avatar
    Login

    Hourly Weather Nevinnomyssk

    Today, 24 June, Sunday

    Time Temperature Precipitation Wind Pressure Humidity
    00:00 +18°C° 0.1 mm 1 mps 704 mmHg 94%
    01:00 +18°C° 0.4 mm 1 mps 705 mmHg 94%
    02:00 +16°C° 0.4 mm 1 mps 705 mmHg 93%
    03:00 +16°C° 0 mm 2 mps 705 mmHg 92%
    04:00 +16°C° 0.4 mm 2 mps 705 mmHg 91%
    05:00 +17°C° 0.4 mm 2 mps 706 mmHg 90%
    06:00 +18°C° 0.4 mm 1 mps 706 mmHg 89%
    07:00 +20°C° 0 mm 1 mps 706 mmHg 83%
    08:00 +22°C° 0 mm 1 mps 707 mmHg 78%
    09:00 +24°C° 0 mm 1 mps 707 mmHg 71%
    10:00 +25°C° 0.2 mm 2 mps 707 mmHg 69%
    11:00 +25°C° 0.2 mm 2 mps 707 mmHg 68%
    12:00 +26°C° 0.2 mm 2 mps 707 mmHg 66%
    13:00 +26°C° 1.1 mm 2 mps 707 mmHg 67%
    14:00 +26°C° 1.1 mm 2 mps 707 mmHg 68%
    15:00 +26°C° 1.1 mm 2 mps 707 mmHg 69%
    16:00 +25°C° 1.7 mm 2 mps 707 mmHg 73%
    17:00 +25°C° 1.7 mm 1 mps 707 mmHg 78%
    18:00 +24°C° 1.7 mm 1 mps 707 mmHg 82%
    19:00 +23°C° 0.7 mm 1 mps 707 mmHg 84%
    20:00 +21°C° 0.7 mm 1 mps 707 mmHg 85%
    21:00 +18°C° 0.7 mm 0 mps 707 mmHg 87%
    22:00 +19°C° 0 mm 1 mps 707 mmHg 88%
    23:00 +19°C° 0 mm 1 mps 707 mmHg 89%

    Tomorrow, 25 June, Monday

    Time Temperature Precipitation Wind Pressure Humidity
    00:00 +18°C° 0 mm 1 mps 707 mmHg 90%
    01:00 +18°C° 0 mm 1 mps 707 mmHg 90%
    02:00 +18°C° 0 mm 1 mps 707 mmHg 91%
    03:00 +18°C° 0 mm 1 mps 707 mmHg 91%
    04:00 +18°C° 0 mm 1 mps 707 mmHg 91%
    05:00 +19°C° 0 mm 1 mps 708 mmHg 90%
    06:00 +19°C° 0 mm 1 mps 708 mmHg 89%
    07:00 +21°C° 0.1 mm 1 mps 708 mmHg 84%
    08:00 +23°C° 0.1 mm 1 mps 708 mmHg 79%
    09:00 +24°C° 0.1 mm 2 mps 708 mmHg 74%
    10:00 +25°C° 0.4 mm 2 mps 708 mmHg 72%
    11:00 +26°C° 0.4 mm 3 mps 708 mmHg 70%
    12:00 +27°C° 0.4 mm 4 mps 708 mmHg 68%
    13:00 +27°C° 0.6 mm 4 mps 707 mmHg 67%
    14:00 +28°C° 0.6 mm 4 mps 707 mmHg 65%
    15:00 +28°C° 0.6 mm 4 mps 707 mmHg 63%
    16:00 +28°C° 0.8 mm 3 mps 707 mmHg 66%
    17:00 +28°C° 0.8 mm 3 mps 707 mmHg 68%
    18:00 +27°C° 0.8 mm 2 mps 707 mmHg 71%
    19:00 +25°C° 0.2 mm 2 mps 707 mmHg 73%
    20:00 +24°C° 0.2 mm 2 mps 707 mmHg 75%
    21:00 +22°C° 0.2 mm 1 mps 706 mmHg 77%
    22:00 +21°C° 0 mm 1 mps 706 mmHg 79%
    23:00 +21°C° 0 mm 1 mps 706 mmHg 81%

    Day after tomorrow, 26 June, Tuesday

    Time Temperature Precipitation Wind Pressure Humidity
    00:00 +20°C° 0 mm 1 mps 706 mmHg 83%
    01:00 +20°C° 0.2 mm 1 mps 706 mmHg 83%
    02:00 +19°C° 0.2 mm 1 mps 706 mmHg 84%
    03:00 +19°C° 0.2 mm 1 mps 705 mmHg 85%
    04:00 +19°C° 0.1 mm 1 mps 705 mmHg 85%
    05:00 +20°C° 0.1 mm 1 mps 706 mmHg 85%
    06:00 +20°C° 0.1 mm 1 mps 706 mmHg 85%
    07:00 +22°C° 0.1 mm 1 mps 706 mmHg 79%
    08:00 +24°C° 0.1 mm 2 mps 706 mmHg 73%
    09:00 +26°C° 0.1 mm 2 mps 706 mmHg 67%
    10:00 +27°C° 0 mm 3 mps 706 mmHg 63%
    11:00 +28°C° 0 mm 3 mps 706 mmHg 59%
    12:00 +29°C° 0 mm 4 mps 706 mmHg 55%
    13:00 +29°C° 0 mm 4 mps 706 mmHg 55%
    14:00 +29°C° 0 mm 5 mps 705 mmHg 54%
    15:00 +30°C° 0 mm 5 mps 705 mmHg 54%
    16:00 +29°C° 0 mm 4 mps 705 mmHg 58%
    17:00 +28°C° 0 mm 4 mps 705 mmHg 62%
    18:00 +28°C° 0 mm 3 mps 705 mmHg 66%
    19:00 +26°C° 0 mm 3 mps 704 mmHg 68%
    20:00 +24°C° 0 mm 2 mps 704 mmHg 71%
    21:00 +21°C° 0 mm 2 mps 704 mmHg 74%
    22:00 +21°C° 0 mm 2 mps 704 mmHg 75%
    23:00 +20°C° 0 mm 2 mps 703 mmHg 75%

    27 June, Wednesday

    Time Temperature Precipitation Wind Pressure Humidity
    00:00 +20°C° 0 mm 2 mps 703 mmHg 75%
    01:00 +20°C° 0 mm 2 mps 703 mmHg 75%
    02:00 +19°C° 0 mm 2 mps 703 mmHg 74%
    03:00 +19°C° 0 mm 2 mps 703 mmHg 73%
    04:00 +19°C° 0 mm 2 mps 703 mmHg 74%
    05:00 +19°C° 0 mm 2 mps 703 mmHg 74%
    06:00 +20°C° 0 mm 2 mps 703 mmHg 75%
    07:00 +23°C° 0 mm 2 mps 704 mmHg 69%
    08:00 +25°C° 0 mm 2 mps 704 mmHg 64%
    09:00 +27°C° 0 mm 2 mps 704 mmHg 59%
    10:00 +29°C° 0 mm 2 mps 704 mmHg 58%
    11:00 +30°C° 0 mm 3 mps 704 mmHg 56%
    12:00 +31°C° 0 mm 3 mps 704 mmHg 54%
    13:00 +32°C° 0.2 mm 4 mps 704 mmHg 55%
    14:00 +32°C° 0.2 mm 4 mps 704 mmHg 55%
    15:00 +32°C° 0.2 mm 4 mps 704 mmHg 56%
    16:00 +32°C° 0.1 mm 4 mps 704 mmHg 59%
    17:00 +30°C° 0.1 mm 3 mps 704 mmHg 63%
    18:00 +30°C° 0.1 mm 2 mps 704 mmHg 67%
    19:00 +28°C° 0 mm 2 mps 704 mmHg 70%
    20:00 +26°C° 0 mm 2 mps 704 mmHg 73%
    21:00 +24°C° 0 mm 2 mps 704 mmHg 76%
    22:00 +23°C° 0 mm 2 mps 704 mmHg 76%
    23:00 +23°C° 0 mm 2 mps 704 mmHg 75%

    28 June, Thursday

    Time Temperature Precipitation Wind Pressure Humidity
    00:00 +21°C° 0 mm 3 mps 704 mmHg 75%
    01:00 +21°C° 0 mm 3 mps 704 mmHg 74%
    02:00 +20°C° 0 mm 2 mps 704 mmHg 74%
    03:00 +20°C° 0 mm 2 mps 704 mmHg 73%
    04:00 +20°C° 0 mm 2 mps 705 mmHg 74%
    05:00 +20°C° 0 mm 2 mps 705 mmHg 75%
    06:00 +21°C° 0 mm 2 mps 705 mmHg 76%
    07:00 +24°C° 0 mm 2 mps 705 mmHg 70%
    08:00 +26°C° 0 mm 2 mps 705 mmHg 65%
    09:00 +28°C° 0 mm 2 mps 706 mmHg 60%
    10:00 +29°C° 0 mm 3 mps 706 mmHg 58%
    11:00 +30°C° 0 mm 4 mps 706 mmHg 57%
    12:00 +32°C° 0 mm 5 mps 705 mmHg 55%
    13:00 +32°C° 0 mm 6 mps 705 mmHg 55%
    14:00 +32°C° 0 mm 6 mps 705 mmHg 55%
    15:00 +33°C° 0 mm 6 mps 705 mmHg 55%
    16:00 +32°C° 0 mm 6 mps 704 mmHg 58%
    17:00 +30°C° 0 mm 5 mps 704 mmHg 62%
    18:00 +29°C° 0 mm 5 mps 704 mmHg 65%
    19:00 +28°C° 0 mm 5 mps 704 mmHg 63%
    20:00 +27°C° 0 mm 6 mps 704 mmHg 60%
    21:00 +26°C° 0 mm 6 mps 704 mmHg 57%
    22:00 +26°C° 0 mm 6 mps 703 mmHg 56%
    23:00 +25°C° 0 mm 5 mps 703 mmHg 55%

    29 June, Friday

    Time Temperature Precipitation Wind Pressure Humidity
    00:00 +25°C° 0 mm 5 mps 703 mmHg 55%
    01:00 +23°C° 0 mm 5 mps 703 mmHg 54%
    02:00 +23°C° 0 mm 5 mps 703 mmHg 54%
    03:00 +22°C° 0 mm 4 mps 703 mmHg 54%
    04:00 +22°C° 0 mm 4 mps 703 mmHg 58%
    05:00 +21°C° 0 mm 4 mps 703 mmHg 62%
    06:00 +21°C° 0 mm 3 mps 703 mmHg 66%
    07:00 +24°C° 0 mm 3 mps 703 mmHg 62%
    08:00 +27°C° 0 mm 3 mps 703 mmHg 59%
    09:00 +29°C° 0 mm 3 mps 704 mmHg 56%
    10:00 +30°C° 0 mm 4 mps 704 mmHg 55%
    11:00 +32°C° 0 mm 4 mps 704 mmHg 54%
    12:00 +33°C° 0 mm 4 mps 704 mmHg 54%
    13:00 +33°C° 0 mm 4 mps 704 mmHg 54%
    14:00 +33°C° 0 mm 4 mps 704 mmHg 55%
    15:00 +34°C° 0 mm 4 mps 704 mmHg 56%
    16:00 +33°C° 0.5 mm 3 mps 704 mmHg 59%
    17:00 +32°C° 0.5 mm 2 mps 704 mmHg 62%
    18:00 +31°C° 0.5 mm 2 mps 704 mmHg 66%
    19:00 +29°C° 0 mm 2 mps 704 mmHg 69%
    20:00 +27°C° 0 mm 2 mps 704 mmHg 72%
    21:00 +26°C° 0 mm 1 mps 704 mmHg 76%
    22:00 +25°C° 0 mm 2 mps 704 mmHg 76%
    23:00 +24°C° 0 mm 2 mps 704 mmHg 77%
    Show more